[Date Prev][Date Next][Thread Prev][Thread Next] - [Date Index][Thread Index][Author Index]

2 Line ISS Keps 7-30



ISS
1 25544U 98067A   04212.19997881  .00026931  00000-0  21932-3 0  3334
2 25544  51.6325 106.2604 0006206  60.4854  78.1123 15.70425774325075
----
Via the sarex mailing list at AMSAT.ORG courtesy of AMSAT-NA.
To unsubscribe, send "unsubscribe sarex" to Majordomo@amsat.org



AMSAT Top AMSAT Home